TimeAKDT,TemperatureF,Dew PointF,Humidity,Sea Level PressureIn,VisibilityMPH,Wind Direction,Wind SpeedMPH,Gust SpeedMPH,PrecipitationIn,Events,Conditions,WindDirDegrees,DateUTC
6:50 AM,50.0,48.2,94,30.01,10.0,East,3.5,-,N/A,Rain,Light Rain,90,2013-09-26 14:50:00
7:50 AM,50.0,48.2,94,29.99,7.0,East,5.8,-,N/A,Rain,Light Rain,90,2013-09-26 15:50:00
8:50 AM,51.8,48.2,88,29.96,7.0,East,5.8,-,N/A,Rain,Light Rain,90,2013-09-26 16:50:00
9:50 AM,51.8,48.2,88,29.97,7.0,East,5.8,-,N/A,Rain,Light Rain,90,2013-09-26 17:50:00
11:50 AM,51.8,48.2,88,29.92,10.0,East,6.9,-,N/A,,Overcast,90,2013-09-26 19:50:00
12:56 PM,50.0,44.6,82,29.89,-9999.0,Calm,Calm,-,N/A,,Overcast,0,2013-09-26 20:56:00
1:16 PM,51.8,42.8,71,29.88,10.0,Calm,Calm,-,N/A,,Overcast,0,2013-09-26 21:16:00
1:36 PM,51.8,44.6,76,29.87,10.0,ESE,10.4,-,N/A,,Overcast,120,2013-09-26 21:36:00
1:56 PM,51.8,42.8,71,29.87,4.0,SSE,3.5,-,0.04,,Overcast,150,2013-09-26 21:56:00
2:16 PM,51.8,42.8,71,29.87,4.0,ESE,6.9,-,0.02,,Overcast,120,2013-09-26 22:16:00
2:36 PM,50.0,44.6,82,29.86,4.0,East,11.5,-,0.02,,Overcast,100,2013-09-26 22:36:00
2:56 PM,50.0,44.6,82,29.86,5.0,East,5.8,-,0.04,,Overcast,90,2013-09-26 22:56:00
3:16 PM,51.8,44.6,76,29.85,5.0,East,10.4,-,N/A,,Overcast,100,2013-09-26 23:16:00
3:36 PM,51.8,44.6,76,29.85,5.0,East,8.1,-,N/A,,Overcast,90,2013-09-26 23:36:00
3:56 PM,50.0,44.6,82,29.84,7.0,East,12.7,16.1,N/A,,Overcast,90,2013-09-26 23:56:00
4:16 PM,50.0,44.6,82,29.84,7.0,East,11.5,18.4,N/A,,Overcast,90,2013-09-27 00:16:00
4:36 PM,50.0,42.8,76,29.85,7.0,WSW,4.6,-,0.01,,Overcast,240,2013-09-27 00:36:00
4:56 PM,50.0,44.6,82,29.85,7.0,NNW,5.8,-,0.02,,Overcast,340,2013-09-27 00:56:00
5:16 PM,50.0,44.6,82,29.84,7.0,North,3.5,-,N/A,,Overcast,350,2013-09-27 01:16:00
5:36 PM,48.2,44.6,87,29.84,7.0,NE,4.6,-,N/A,,Overcast,40,2013-09-27 01:36:00
5:56 PM,48.2,44.6,87,29.84,7.0,East,4.6,-,0.01,,Overcast,80,2013-09-27 01:56:00
6:16 PM,48.2,44.6,87,29.84,7.0,ESE,5.8,-,N/A,,Overcast,120,2013-09-27 02:16:00
6:36 PM,48.2,44.6,87,29.83,7.0,East,11.5,-,N/A,,Overcast,100,2013-09-27 02:36:00
6:56 PM,48.2,44.6,87,29.83,10.0,SE,6.9,-,N/A,,Overcast,140,2013-09-27 02:56:00
7:16 PM,48.2,44.6,87,29.83,10.0,South,5.8,-,N/A,,Overcast,170,2013-09-27 03:16:00
7:36 PM,48.2,44.6,87,29.83,10.0,South,3.5,-,N/A,,Overcast,190,2013-09-27 03:36:00
7:56 PM,48.2,44.6,87,29.83,10.0,ESE,5.8,-,N/A,,Overcast,120,2013-09-27 03:56:00
8:16 PM,48.2,42.8,82,29.83,10.0,SE,5.8,-,N/A,,Overcast,140,2013-09-27 04:16:00
8:36 PM,48.2,42.8,82,29.83,10.0,Calm,Calm,-,N/A,,Overcast,0,2013-09-27 04:36:00
8:56 PM,48.2,42.8,82,29.83,8.0,Calm,Calm,-,0.02,,Overcast,0,2013-09-27 04:56:00
9:16 PM,48.2,44.6,87,29.82,8.0,ESE,8.1,-,N/A,,Overcast,120,2013-09-27 05:16:00
9:36 PM,48.2,44.6,87,29.82,8.0,SE,8.1,-,N/A,,Overcast,130,2013-09-27 05:36:00
9:56 PM,48.2,42.8,82,29.81,8.0,SE,3.5,-,N/A,,Overcast,140,2013-09-27 05:56:00
10:16 PM,48.2,42.8,82,29.81,8.0,ESE,4.6,-,N/A,,Overcast,120,2013-09-27 06:16:00
10:36 PM,48.2,42.8,82,29.80,8.0,ESE,10.4,16.1,N/A,,Overcast,110,2013-09-27 06:36:00
10:56 PM,48.2,44.6,87,29.80,8.0,East,6.9,-,N/A,,Overcast,100,2013-09-27 06:56:00
11:16 PM,48.2,42.8,82,29.80,10.0,West,4.6,-,0.01,,Overcast,260,2013-09-27 07:16:00
11:36 PM,48.2,42.8,82,29.80,10.0,East,4.6,-,0.01,,Overcast,90,2013-09-27 07:36:00
11:56 PM,48.2,44.6,87,29.79,10.0,East,11.5,-,0.01,,Overcast,100,2013-09-27 07:56:00